OSCAR 7 (AO-7) 1 07530U 74089B 26061.62419284 -.00000031 00000+0 98556-4 0 9995 2 07530 101.9970 73.7380 0012032 335.8556 136.5471 12.53696261347164 PHASE 3B (AO-10) 1 14129U 83058B 26061.53393855 -.00000164 00000+0 00000+0 0 9997 2 14129 25.9320 237.4860 6049007 86.0782 336.7646 2.05874052293290 UOSAT 2 (UO-11) 1 14781U 84021B 26061.49035373 .00001904 00000+0 20074-3 0 9994 2 14781 97.7935 28.3556 0007769 165.2839 194.8606 14.90474551241231 LUSAT (LO-19) 1 20442U 90005G 26061.64394796 .00000188 00000+0 83962-4 0 9997 2 20442 98.8940 80.4714 0012067 154.0285 206.1506 14.34084473887121 EYESAT A (AO-27) 1 22825U 93061C 26061.78442457 .00000138 00000+0 69588-4 0 9995 2 22825 98.6997 129.1889 0009258 57.6274 302.5803 14.30910299691782 ITAMSAT (IO-26) 1 22826U 93061D 26061.72552401 .00000162 00000+0 77953-4 0 9993 2 22826 98.6945 129.0367 0009566 42.3891 317.8029 14.31334105692084 RADIO ROSTO (RS15) 1 23439U 94085A 26061.60040448 -.00000016 00000+0 75653-3 0 9994 2 23439 64.8147 115.5996 0152413 23.3657 337.4100 11.27583756283883 JAS-2 (FO-29) 1 24278U 96046B 26061.62317689 -.00000014 00000+0 22091-4 0 9998 2 24278 98.5393 284.9983 0350132 13.0944 347.9005 13.53268404458753 TECHSAT 1B (GO-32) 1 25397U 98043D 26061.50493037 .00000111 00000+0 68119-4 0 9997 2 25397 99.0018 51.6019 0001855 130.8341 229.2998 14.24403781436149 ISS (ZARYA) 1 25544U 98067A 26061.54331036 .00009842 00000+0 19033-3 0 9991 2 25544 51.6317 107.6867 0008241 149.4104 210.7366 15.48401384555220 PCSAT (NO-44) 1 26931U 01043C 26061.64344242 .00000210 00000+0 10924-3 0 9994 2 26931 67.0510 159.8353 0007022 265.3529 94.6771 14.31907768275193 SAUDISAT 1C (SO-50) 1 27607U 02058C 26061.53568897 .00002000 00000+0 25340-3 0 9991 2 27607 64.5510 98.8982 0075068 281.9553 77.3144 14.82748605248643 CUTE-1 (CO-55) 1 27844U 03031E 26061.53865418 .00000422 00000+0 20177-3 0 9994 2 27844 98.6778 71.4263 0010451 131.1798 229.0284 14.24259043176494 CUBESAT XI-IV (CO-57) 1 27848U 03031J 26061.47397015 .00000370 00000+0 18145-3 0 9998 2 27848 98.6809 71.1608 0010073 147.8970 212.2824 14.23555341176199 MOZHAETS 4 (RS22) 1 27939U 03042A 26061.87442041 .00001543 00000+0 24718-3 0 9991 2 27939 98.3425 243.2462 0010243 243.9753 247.9478 14.73229582199899 CUBESAT XI-V 1 28895U 05043F 26061.64784810 .00002536 00000+0 40907-3 0 9995 2 28895 98.2814 215.1395 0014355 179.3571 180.7656 14.72280863 86078 CUTE-1.7+APD II (CO-65) 1 32785U 08021C 26061.88045833 .00009086 00000+0 58977-3 0 9991 2 32785 97.8192 41.2304 0010318 39.4800 320.7177 15.08251734969168 SEEDS II (CO-66) 1 32791U 08021J 26061.52544139 .00022953 00000+0 82362-3 0 9995 2 32791 97.7503 54.6595 0002730 20.6846 339.4503 15.28701509970974 YUBILEINY (RS30) 1 32953U 08025A 26061.78670068 .00000049 00000+0 28259-3 0 9995 2 32953 82.4985 61.6189 0019265 180.2952 179.8120 12.43175874806476 KKS-1 (KISEKI) 1 33499U 09002H 26061.78430989 .00002291 00000+0 29010-3 0 9990 2 33499 98.1190 342.5747 0006471 278.2947 81.7532 14.82796561920429 SWISSCUBE 1 35932U 09051B 26061.70310119 .00001519 00000+0 31106-3 0 9993 2 35932 98.4106 327.7220 0006594 173.5794 186.5492 14.62235995873598 BEESAT-1 1 35933U 09051C 26061.72684061 .00001272 00000+0 26627-3 0 9994 2 35933 98.4036 327.6002 0004825 184.8887 175.2267 14.61513291873638 ITUPSAT1 1 35935U 09051E 26061.69356917 .00001151 00000+0 24857-3 0 9997 2 35935 98.4125 326.8680 0006783 200.9387 159.1536 14.60249665873193 XIWANG-1 (HOPE-1) 1 36122U 09072B 26061.84504955 .00000343 00000+0 10129-2 0 9991 2 36122 100.3897 17.4359 0008017 114.0765 246.1188 13.16436857779011 O/OREOS (USA 219) 1 37224U 10062C 26061.76458398 .00003127 00000+0 30397-3 0 9999 2 37224 71.9727 321.3167 0016915 268.2810 91.6422 14.93235206100757 JUGNU 1 37839U 11058B 26061.80329812 .00000502 00000+0 12266-3 0 9999 2 37839 19.9596 234.7346 0018632 341.6497 143.8293 14.13737032743953 SRMSAT 1 37841U 11058D 26061.50080932 .00000475 00000+0 11391-3 0 9993 2 37841 19.9732 345.2138 0011888 110.4701 67.1482 14.11544423742721 STRAND-1 1 39090U 13009E 26061.46258252 .00000465 00000+0 17107-3 0 9996 2 39090 98.3880 244.3341 0008604 182.8724 177.2415 14.37087200681734 ZACUBE-1 (TSHEPISOSAT) 1 39417U 13066B 26061.86043747 .00006102 00000+0 48380-3 0 9998 2 39417 97.8182 23.6506 0041555 243.0931 116.6044 15.00236927664783 GOMX-1 1 39430U 13066Q 26061.80947065 .00002226 00000+0 34024-3 0 9996 2 39430 97.6574 268.9434 0130659 59.4061 301.9958 14.69065451654296 CUBEBUG-2 (LO-74) 1 39440U 13066AA 26061.86115483 .00007706 00000+0 72433-3 0 9998 2 39440 97.8806 10.5236 0059455 21.5397 338.8304 14.92848010661124 FUNCUBE-1 (AO-73) 1 39444U 13066AE 26061.80574300 .00010543 00000+0 68338-3 0 9995 2 39444 97.8166 31.2276 0036526 203.0732 156.8857 15.07748353663629 UWE-3 1 39446U 13066AG 26061.77418278 .00006526 00000+0 57209-3 0 9995 2 39446 97.8592 17.2799 0048822 316.3479 43.3885 14.96081032661660 UNISAT-6 1 40012U 14033C 26061.67804475 .00003980 00000+0 43566-3 0 9990 2 40012 97.7708 216.4004 0046470 60.5563 300.0279 14.87572265630322 DUCHIFAT-1 1 40021U 14033M 26061.65992116 .00061132 00000+0 11308-2 0 9999 2 40021 98.0649 107.2642 0006730 103.7113 256.4886 15.48814794639186 QB50P1 1 40025U 14033R 26061.58353834 .00010827 00000+0 56154-3 0 9997 2 40025 98.0998 65.3871 0007539 221.3310 138.7351 15.16330216636867 LILACSAT-2 1 40908U 15049K 26061.85620057 .00020066 00000+0 38883-3 0 9994 2 40908 97.4817 94.8443 0005596 279.9056 80.1562 15.47723029579287 FOX-1A (AO-85) 1 40967U 15058D 26061.81491425 .00004741 00000+0 43042-3 0 9995 2 40967 64.7735 249.3858 0129272 98.6956 262.8824 14.90282183 97719 CAS-2T & KS-1Q 1 41847U 16066G 26061.78002362 .00001730 00000+0 24953-3 0 9992 2 41847 98.3900 138.7061 0343826 92.3774 271.6820 14.44443506489438 RADFXSAT (FOX-1B) 1 43017U 17073E 26061.77332225 .00012615 00000+0 57237-3 0 9990 2 43017 97.4875 291.2158 0155581 336.0986 23.3072 15.10689956449313 DIWATA-2B 1 43678U 18084H 26061.85105957 .00003407 00000+0 27946-3 0 9998 2 43678 98.1035 253.6074 0011057 148.1299 212.0594 14.99918191400279 ES'HAIL 2 1 43700U 18090A 26061.72035672 .00000127 00000+0 00000+0 0 9997 2 43700 0.0255 242.7362 0002653 132.4476 70.4158 1.00267779 26605 FOX-1CLIFF (AO-95) 1 43770U 18099N 26061.68475105 .00013793 00000+0 56810-3 0 9994 2 43770 97.4530 122.4464 0008954 12.8802 347.2662 15.24186888396987 ITASAT 1 43786U 18099AE 26061.71949348 .00008385 00000+0 42018-3 0 9996 2 43786 97.4183 115.3895 0012940 11.4547 348.6979 15.17536936396754 JY1SAT (JO-97) 1 43803U 18099AX 26061.68901688 .00019773 00000+0 68267-3 0 9994 2 43803 97.4273 124.3666 0004609 290.0792 69.9952 15.29981850397320 UWE-4 1 43880U 18111E 26061.72119306 .00036009 00000+0 91783-3 0 9997 2 43880 97.5860 345.7590 0008919 5.6381 354.4963 15.39415358394366 TIANYAN 01 1 44881U 19093C 26061.81893400 .00001199 00000+0 14200-3 0 9994 2 44881 97.7630 136.6197 0015016 78.2601 282.0299 14.86321320335619 RS-44 & BREEZE-KM R/B 1 44909U 19096E 26061.44574770 .00000016 00000+0 18230-4 0 9998 2 44909 82.5186 50.6292 0218213 34.2189 327.2756 12.79747366288693 SALSAT 1 46495U 20068K 26061.53547552 .00011172 00000+0 41124-3 0 9991 2 46495 97.8844 58.2509 0008864 326.6723 33.3956 15.28007427299065 XW-3 (CAS-9) 1 50466U 21131B 26061.83925963 .00000671 00000+0 22125-3 0 9997 2 50466 98.4969 154.8342 0005130 66.3744 293.7983 14.41240078219794 GREENCUBE (IO-117) 1 53109U 22080E 26061.72898270 -.00000003 00000+0 00000+0 0 9990 2 53109 70.1617 335.2737 0009044 313.3588 46.6318 6.42583122 85228 UMKA 1 (RS40S) 1 57172U 23091G 26061.78942608 .00008444 00000+0 40013-3 0 9996 2 57172 97.5196 120.9239 0014455 127.6813 232.5735 15.19470486147840 CUBESX-HSE 3 (RS42S) 1 57178U 23091N 26061.88617394 .00016111 00000+0 58426-3 0 9991 2 57178 97.5226 126.2886 0012830 108.6839 251.5794 15.28350846148179 MONITOR-3 (RS58S) 1 57180U 23091Q 26061.89148902 .00013275 00000+0 52472-3 0 9992 2 57180 97.5220 124.6681 0013756 113.3015 246.9672 15.25529265148070 MONITOR-4 (RS57S) 1 57182U 23091S 26061.87699521 .00013562 00000+0 53463-3 0 9990 2 57182 97.5214 124.6181 0013710 113.7533 246.5144 15.25614079148077 MONITOR-2 (RS39S) 1 57184U 23091U 26061.88298411 .00006736 00000+0 33570-3 0 9998 2 57184 97.5220 120.8613 0012892 119.6739 240.5780 15.17812734147828 SVYATOBOR 1 (RS60S) 1 57187U 23091X 26061.87485458 .00011662 00000+0 47436-3 0 9999 2 57187 97.5226 125.1885 0011254 106.0243 254.2234 15.24631339148103 VIZARD-METEO (RS38S) 1 57189U 23091Z 26061.84247006 .00020287 00000+0 64840-3 0 9994 2 57189 97.5216 129.4201 0009056 93.3547 266.8731 15.32441400148383 NANOZOND 1 (RS49S) 1 57190U 23091AA 26061.87519240 .00201462 00000+0 15378-2 0 9998 2 57190 97.5096 141.5892 0000706 75.7521 284.3820 15.71591194149206 POLYTECH-UNIVERSE 3 (R*) 1 57191U 23091AB 26061.85788828 .00006835 00000+0 33832-3 0 9990 2 57191 97.5193 120.3436 0017057 136.0441 224.2152 15.17992336147812 UTMN 2 (RS27S) 1 57203U 23091AP 26061.83295524 .00016175 00000+0 57152-3 0 9997 2 57203 97.5218 127.7375 0009952 97.6347 262.6024 15.29235227148276 KUZGTU 1 (RS47S) 1 57217U 23091AV 26061.85698140 .00015911 00000+0 59685-3 0 9995 2 57217 97.5201 125.3909 0012953 111.3688 248.8935 15.27236904148130 SONATE-2 1 59112U 24043Q 26061.36903506 .00042719 00000+0 74240-3 0 9990 2 59112 97.5384 205.9504 0007845 231.8475 128.2070 15.50669853111297 MESAT1 1 60209U 24125G 26061.54902947 .00046157 00000+0 74116-3 0 9990 2 60209 97.2465 277.3216 0011180 251.3742 108.6298 15.52835342 92963 OOV-CUBE (TUBSAT-30) 1 60240U 24128F 26061.77349682 .00004271 00000+0 32804-3 0 9993 2 60240 61.9933 236.4815 0055105 111.0594 249.6402 15.02184323 90129 COLIBRI-S (RS67S) 1 61746U 24199M 26061.81150000 .00025810 00000+0 58452-3 0 9991 2 61746 97.3174 294.9408 0008132 315.5285 44.5309 15.43064104120989 HORS 3 (RS81S) 1 61753U 24199U 26061.79479440 .00035931 00000+0 69120-3 0 9997 2 61753 97.3143 295.9825 0006278 323.6639 36.4184 15.47810941121062 HORS 4 (RS82S) 1 61754U 24199V 26061.81034462 .00043942 00000+0 76807-3 0 9993 2 61754 97.3121 296.6687 0006005 320.5052 39.5762 15.50513365121112 HORIZON (RS59S) 1 61757U 24199Y 26061.79543403 .00130473 00000+0 11589-2 0 9994 2 61757 97.3091 300.3013 0003301 297.3057 62.7868 15.68122510121346 ARCTICSAT 1 (RS74S) 1 61762U 24199AD 26061.78972239 .00097847 00000+0 10231-2 0 9992 2 61762 97.3110 299.8603 0003686 293.5937 66.4935 15.64137554121315 SIT-2086 1 61764U 24199AF 26061.80280556 .00027860 00000+0 54769-3 0 9994 2 61764 97.3139 296.7288 0006356 302.3367 57.7267 15.47232213117951 RUZAEVKA 390 (RS44S) 1 61766U 24199AH 26061.62672404 .00844467 34052-3 16494-2 0 9993 2 61766 97.2881 303.4007 0001705 153.2138 206.9229 16.00278810118391 HYPERVIEW 1G (RS66S) 1 61772U 24199AP 26061.81755778 .00072586 00000+0 10030-2 0 9994 2 61772 97.3105 297.7157 0007205 317.0332 43.0360 15.56885987118032 ALTAIR (RS65S) 1 61779U 24199AW 26061.79117476 .00014861 00000+0 44122-3 0 9997 2 61779 97.3196 291.9023 0012740 335.1886 24.8743 15.34809569120787 ASRTU-1 (AO-123) 1 61781U 24199AY 26061.76663620 .00011374 00000+0 34822-3 0 9996 2 61781 97.3170 291.4172 0013476 337.1140 22.9500 15.33892773117609 TUSUR GO (RS78S) 1 61782U 24199AZ 26061.81043550 .00148307 00000+0 12951-2 0 9992 2 61782 97.3045 299.3268 0004405 316.1914 43.8998 15.68481704118141 SAMSAT-IONOSPHERE (RS7*) 1 61784U 24199BB 26061.82398508 .00041362 00000+0 76497-3 0 9990 2 61784 97.3131 295.7946 0009273 323.3723 36.6893 15.48888512121052 RTU MIREA 1 (RS51S) 1 61785U 24199BC 26061.83022574 .00048497 00000+0 83998-3 0 9999 2 61785 97.3130 296.2258 0008988 319.2335 40.8243 15.50725565117938 TEVEL2-4 1 63213U 25052D 26061.69961235 .00022254 00000+0 75407-3 0 9995 2 63213 97.4040 318.1473 0004459 108.3721 251.8005 15.30565789 53808 TEVEL2-5 1 63214U 25052E 26061.64464484 .00022308 00000+0 75865-3 0 9993 2 63214 97.4038 318.0667 0004444 108.2519 251.9206 15.30447348 53790 TEVEL2-6 1 63215U 25052F 26061.65428043 .00022713 00000+0 77334-3 0 9999 2 63215 97.4041 318.0620 0004521 109.9512 250.2216 15.30405404 53791 TEVEL2-1 1 63217U 25052H 26061.65061916 .00021697 00000+0 74835-3 0 9996 2 63217 97.4016 317.7976 0004281 118.7771 241.3900 15.29995139 53780 TEVEL2-3 1 63218U 25052J 26061.64835751 .00022118 00000+0 76198-3 0 9995 2 63218 97.4019 317.8059 0004297 119.8285 240.3383 15.30030470 53780 TEVEL2-2 1 63219U 25052K 26061.45508269 .00022969 00000+0 79209-3 0 9996 2 63219 97.4017 317.6037 0004235 120.2136 239.9524 15.29988876 53754 TEVEL2-9 1 63237U 25052AD 26061.69733037 .00019983 00000+0 72566-3 0 9996 2 63237 97.4078 317.4266 0007313 144.2958 215.8772 15.28311423 53745 TEVEL2-7 1 63238U 25052AE 26061.26227880 .00020443 00000+0 74741-3 0 9994 2 63238 97.4081 316.9483 0007453 146.3242 213.8472 15.28082137 53673 TEVEL2-8 1 63239U 25052AF 26061.66209870 .00020138 00000+0 73648-3 0 9994 2 63239 97.4078 317.3269 0007368 145.3570 214.8151 15.28075546 53733 HADES-ICM 1 63492U 25052BN 26061.68675609 .00134694 00000+0 20045-2 0 9999 2 63492 97.3975 321.8901 0008264 124.6306 235.5728 15.54629520 54057 INNOSAT 16 (RS92S7) 1 64878U 25155C 26061.82295902 .00008587 00000+0 35638-3 0 9998 2 64878 97.4449 29.4680 0010114 189.3748 170.7302 15.24047999 64468 GEOSCAN 6 (RS92S6) 1 64879U 25155D 26061.83835120 .00015127 00000+0 55965-3 0 9995 2 64879 97.4448 30.2280 0007758 176.9249 183.2039 15.27754913 64518 GEOSCAN 1 (RS92S1) 1 64880U 25155E 26061.81052638 .00015746 00000+0 57529-3 0 9995 2 64880 97.4446 30.2698 0007640 177.0541 183.0745 15.28160063 64518 239ALFEROV (RS61S) 1 64881U 25155F 26061.77750537 .00020321 00000+0 70903-3 0 9990 2 64881 97.4451 30.4944 0007330 174.3821 185.7503 15.29616588 64529 GEOSCAN 2 (RS92S2) 1 64890U 25155Q 26061.82423531 .00015188 00000+0 54994-3 0 9994 2 64890 97.4445 30.3912 0007589 162.5505 197.5997 15.28463794 64526 GEOSCAN 5 (RS92S5) 1 64891U 25155R 26061.85457365 .00020808 00000+0 71864-3 0 9990 2 64891 97.4445 30.6669 0005933 177.0771 183.0505 15.29953778 64540 GEOSCAN 4 (RS92S4) 1 64892U 25155S 26061.84741596 .00021537 00000+0 74131-3 0 9992 2 64892 97.4449 30.6830 0005930 177.2119 182.9155 15.30056662 64547 GEOSCAN 3 (RS92S3) 1 64893U 25155T 26061.83113461 .00024405 00000+0 80745-3 0 9991 2 64893 97.4441 30.8449 0005536 176.4398 183.6883 15.31315756 64550 INNOSAT 3 (RS92S0) 1 64894U 25155U 26061.82066959 .00041642 00000+0 11829-2 0 9998 2 64894 97.4411 31.4350 0005076 165.4495 194.6896 15.36053363 64599